Weather History for Willimantic, CT

Change the Weather History Date:

Tuesday, November 27, 2012

  Actual Average Record
Temperature  
Mean Temperature 30 °F -  
Max Temperature 34 °F 49 °F 66 °F (1979)
Min Temperature 25 °F 28 °F 11 °F (1957)
Degree Days  
Heating Degree Days 36    
Moisture  
Dew Point 28 °F    
Average Humidity 85    
Maximum Humidity 89    
Minimum Humidity 76    
Precipitation  
Precipitation 0.22 in - - ()
Sea Level Pressure  
Sea Level Pressure 30.28 in    
Wind  
Wind Speed 0 mph (North)    
Max Wind Speed 5 mph    
Max Gust Speed -    
Visibility 3 miles    
Events Fog , Snow    
Averages and records for this station are not official NWS values.
T = Trace of Precipitation, MM = Missing Value Source: NWS Daily Summary

Daily Weather History Graph

Daily Weather History Graph

Search for Another Location

Airport:

Trip Planner

Search our weather history database for the weather conditions in past years. The results will help you decide how hot, cold, wet, or windy it might be!

Date:

Astronomy

Nov. 27, 2012 Rise Set
Actual Time 6:52 AM EST 4:20 PM EST
Civil Twilight 6:21 AM EST 4:50 PM EST
Nautical Twilight 5:47 AM EST 5:25 PM EST
Astronomical Twilight 5:14 AM EST 5:58 PM EST
Moon 3:49 PM EST 5:54 AM EST
Length of Visible Light 10h 29m
Length of Day
9h 27m
Waxing Gibbous, 99% of the Moon is Illuminated
Nov 27
Waxing Gibbous
Nov 28
Full
Dec 6
Last Quarter
Dec 13
New
Dec 20
First Quarter

Hourly Weather History & Observations

Time (EST) Temp. Windchill Dew Point Humidity Pressure Visibility Wind Dir Wind Speed Gust Speed Precip Events Conditions
12:52 AM 25.0 °F - 19.9 °F 81% 30.27 in 10.0 mi Calm Calm - N/A   Clear
1:52 AM 26.1 °F - 21.0 °F 81% 30.29 in 9.0 mi Calm Calm - N/A   Clear
2:52 AM 27.0 °F - 21.0 °F 78% 30.29 in 10.0 mi Calm Calm - N/A   Scattered Clouds
3:52 AM 27.0 °F - 21.9 °F 81% 30.29 in 10.0 mi Calm Calm - N/A   Overcast
4:52 AM 28.0 °F - 23.0 °F 81% 30.28 in 10.0 mi Calm Calm - N/A   Overcast
5:52 AM 28.9 °F - 23.0 °F 78% 30.30 in 10.0 mi Calm Calm - N/A   Overcast
6:52 AM 30.0 °F - 24.1 °F 79% 30.31 in 10.0 mi Calm Calm - N/A   Overcast
7:52 AM 30.9 °F - 24.1 °F 76% 30.32 in 10.0 mi Calm Calm - N/A   Overcast
8:38 AM 30.2 °F - 24.8 °F 80% 30.32 in 2.5 mi Calm Calm - 0.00 in Snow Light Snow
8:52 AM 32.0 °F - 26.1 °F 79% 30.33 in 1.5 mi Calm Calm - 0.00 in Snow Light Snow
9:52 AM 32.0 °F - 28.0 °F 85% 30.33 in 1.2 mi Calm Calm - 0.01 in Snow Light Snow
9:59 AM 32.0 °F - 28.4 °F 87% 30.32 in 1.0 mi Calm Calm - 0.00 in Snow Light Snow
10:06 AM 32.0 °F - 28.4 °F 87% 30.32 in 0.8 mi Calm Calm - 0.00 in Snow Light Snow
10:13 AM 32.0 °F - 28.4 °F 87% 30.32 in 1.0 mi Calm Calm - 0.00 in Snow Light Snow
10:27 AM 32.0 °F - 28.4 °F 87% 30.32 in 0.8 mi Calm Calm - 0.01 in Snow Light Snow
10:37 AM 32.0 °F - 28.4 °F 87% 30.31 in 1.0 mi Calm Calm - 0.01 in Snow Light Snow
10:45 AM 33.8 °F - 28.4 °F 81% 30.31 in 1.0 mi Calm Calm - 0.02 in Snow Light Snow
10:52 AM 33.1 °F - 28.9 °F 85% 30.32 in 1.0 mi Calm Calm - 0.02 in Snow Light Snow
11:05 AM 33.8 °F - 30.2 °F 87% 30.31 in 1.0 mi Calm Calm - 0.00 in Snow Light Snow
11:49 AM 33.8 °F - 30.2 °F 87% 30.30 in 0.8 mi Calm Calm - 0.02 in Snow Light Snow
11:52 AM 34.0 °F - 30.0 °F 85% 30.30 in 0.8 mi Calm Calm - 0.02 in Snow Light Snow
12:24 PM 33.8 °F - 30.2 °F 87% 30.29 in 0.5 mi Calm Calm - 0.02 in Fog , Snow Snow
12:33 PM 33.8 °F - 30.2 °F 87% 30.29 in 0.5 mi Calm Calm - 0.03 in Fog , Snow Snow
12:52 PM 34.0 °F - 30.9 °F 89% 30.29 in 0.5 mi Calm Calm - 0.04 in Fog , Snow Snow
1:04 PM 33.8 °F - 30.2 °F 87% 30.28 in 0.5 mi Calm Calm - 0.00 in Fog , Snow Snow
1:38 PM 33.8 °F - 30.2 °F 87% 30.27 in 0.8 mi Calm Calm - 0.02 in Snow Light Snow
1:45 PM 33.8 °F - 30.2 °F 87% 30.27 in 0.5 mi Calm Calm - 0.02 in Fog , Snow Snow
1:52 PM 34.0 °F - 30.9 °F 89% 30.27 in 0.5 mi Calm Calm - 0.03 in Fog , Snow Light Snow
2:52 PM 34.0 °F - 30.9 °F 89% 30.26 in 0.8 mi Calm Calm - 0.01 in Snow Light Snow
3:30 PM 33.8 °F - 30.2 °F 87% 30.25 in 1.2 mi Calm Calm - 0.02 in Snow Light Snow
3:52 PM 34.0 °F - 30.9 °F 89% 30.25 in 1.2 mi Calm Calm - 0.02 in Snow Light Snow
4:52 PM 34.0 °F - 30.0 °F 85% 30.25 in 1.8 mi Calm Calm - 0.01 in Snow Light Snow
5:48 PM 33.8 °F - 30.2 °F 87% 30.26 in 1.2 mi Calm Calm - 0.02 in Snow Light Snow
5:52 PM 34.0 °F - 30.9 °F 89% 30.26 in 1.2 mi Calm Calm - 0.02 in Snow Light Snow
6:18 PM 33.8 °F - 30.2 °F 87% 30.25 in 1.0 mi Calm Calm - 0.02 in Snow Light Snow
6:52 PM 34.0 °F - 30.9 °F 89% 30.25 in 1.8 mi Calm Calm - 0.03 in Snow Light Snow
7:06 PM 33.8 °F 30.8 °F 30.2 °F 87% 30.24 in 2.0 mi North 3.5 mph - 0.00 in Snow Light Snow
7:34 PM 33.8 °F 30.8 °F 30.2 °F 87% 30.24 in 3.0 mi North 3.5 mph - 0.00 in Snow Light Snow
7:48 PM 33.8 °F 30.8 °F 30.2 °F 87% 30.24 in 4.0 mi North 3.5 mph - 0.01 in Snow Light Snow
7:52 PM 34.0 °F 31.0 °F 30.9 °F 89% 30.25 in 4.0 mi North 3.5 mph - 0.01 in Snow Light Snow
8:40 PM 33.8 °F 30.8 °F 30.2 °F 87% 30.24 in 5.0 mi North 3.5 mph - 0.00 in Snow Light Snow
8:52 PM 34.0 °F 29.8 °F 30.9 °F 89% 30.25 in 4.0 mi North 4.6 mph - 0.00 in Snow Light Snow
9:52 PM 34.0 °F 31.0 °F 30.9 °F 89% 30.24 in 4.0 mi North 3.5 mph - 0.00 in Snow Light Snow
10:52 PM 34.0 °F 29.8 °F 30.9 °F 89% 30.24 in 8.0 mi North 4.6 mph - 0.00 in   Overcast
11:52 PM 34.0 °F 29.8 °F 30.0 °F 85% 30.22 in 10.0 mi North 4.6 mph - N/A   Overcast